Regional Weather Roundup
Issued by NWS

Home | Current Version | Previous Version | Text Only | Print | Product List | Glossary On
Versions: 1 2 3 4 5 6 7 8 9 10 11 12 13 14 15 16 17 18 19 20 21 22 23 24 25 26 27 28 29 30 31 32 33 34 35 36 37 38 39 40 41 42 43 44 45 46 47 48 49 50
000
ASUS45 KPSR 291110
RWRAZ

ARIZONA HOURLY REGIONAL WEATHER ROUNDUP
NATIONAL WEATHER SERVICE PHOENIX AZ
400 AM MST FRI MAY 29 2015

NOTE: FAIR INDICATES FEW OR NO CLOUDS BELOW 12,000 FEET WITH NO
SIGNIFICANT WEATHER AND/OR OBSTRUCTIONS TO VISIBILITY.

AZZ001>003-036-291200-
NORTHWEST ARIZONA

CITY           SKY/WX    TMP DP  RH WIND       PRES   REMARKS
BULLHEAD CITY  CLEAR     77  25  14 CALM      29.84R
KINGMAN        PTCLDY    62  22  21 SE8       30.00S
$$

AZZ004>008-015-016-018-291200-
NORTH CENTRAL ARIZONA

CITY           SKY/WX    TMP DP  RH WIND       PRES   REMARKS
GRAND CANYON   PTCLDY    43  37  79 CALM      30.21R
WILLIAMS       MOCLDY    46  28  49 S10       30.28R
PRESCOTT       PTCLDY    57  28  33 S10       30.11S
FLAGSTAFF      CLOUDY    42  29  59 CALM      30.24R
PAYSON         MOCLDY    54  30  40 N6        30.14R
PAGE           MOCLDY    67  42  40 CALM      30.07F
$$

AZZ009>014-017-291200-
NORTHEAST ARIZONA

CITY           SKY/WX    TMP DP  RH WIND       PRES   REMARKS
WINSLOW        CLOUDY    57  27  31 W6        30.11R
SAINT JOHNS    MOCLDY    50  24  36 S5        30.14R
WINDOW ROCK    PTCLDY    41  31  67 CALM      30.21S
SHOW LOW       CLOUDY    50  25  37 S7        30.20R
$$

AZZ023-291200-
GREATER PHOENIX AREA

CITY           SKY/WX    TMP DP  RH WIND       PRES   REMARKS
PHOENIX        CLEAR     77  33  20 CALM      29.85R
BUCKEYE          N/A     66  28  24 NE7       29.87R
LUKE AFB       CLEAR     67  40  37 SE1       29.85S
DEER VALLEY    CLEAR     68  34  28 CALM      29.87R
SCOTTSDALE     CLEAR     71  41  33 CALM      29.89R
MESA-GATEWAY   CLEAR     64  41  42 SE7       29.90R
$$

AZZ027-028-291200-
SOUTHWEST MARICOPA COUNTY AND PINAL COUNTY

CITY           SKY/WX    TMP DP  RH WIND       PRES   REMARKS
CASA GRANDE    CLEAR     70  36  28 CALM      29.88R
GILA BEND      FAIR      69  38  32 S3        29.85R
$$

AZZ503-504-507>509-291200-
SOUTHEAST ARIZONA

CITY           SKY/WX    TMP DP  RH WIND       PRES   REMARKS
TUCSON         CLEAR     67  32  27 SE7       29.98S
DAVIS-MONTHAN  CLEAR     65  31  28 SE6       29.97R
NOGALES        CLEAR     57  34  41 SE3       30.04S
SIERRA VISTA   CLEAR     62  26  25 VRB2      30.10S
DOUGLAS        CLEAR     54  23  30 E3        30.07S
SAFFORD        CLEAR     60  22  23 NE3       29.97R
$$

AZZ020-021-025-026-031-291200-
SOUTHWEST ARIZONA

CITY           SKY/WX    TMP DP  RH WIND       PRES   REMARKS
YUMA           CLEAR     73  40  30 S5        29.81S
$$

CAZ031-033-041-043-047-048-061-291200-
SOUTHERN CALIFORNIA

CITY           SKY/WX    TMP DP  RH WIND       PRES   REMARKS
DOWNTOWN L.A.  CLOUDY    60  56  86 CALM      29.93F
L.A. AIRPORT   CLOUDY    59  56  89 CALM      29.94F
SAN DIEGO      CLOUDY    62  55  77 SW3       29.96S
BURBANK        CLEAR     59  54  83 E5        29.93S
ONTARIO        PTCLDY    57  54  89 W3        29.94S FOG
RIVERSIDE      CLEAR     58  55  90 W3        29.94S
PALM SPRINGS   CLEAR     74  54  49 SW3       29.83S
EL CENTRO NAS  CLEAR     66  53  63 E6        29.80S
IMPERIAL       CLEAR     69  58  67 E8        29.78S
BLYTHE         CLEAR     69  39  33 SE3       29.81S
NEEDLES        CLEAR     77  25  14 W6        29.84R
$$

NVZ020-UTZ003-291200-
SOUTHERN NEVADA-UTAH

CITY           SKY/WX    TMP DP  RH WIND       PRES   REMARKS
LAS VEGAS      PTCLDY    76  34  21 SW3       29.86R
SALT LAKE CITY CLEAR     52  44  74 S7        30.15S
$$

NMZ009-TXZ055-291200-
NEW MEXICO-WEST TEXAS

CITY           SKY/WX    TMP DP  RH WIND       PRES   REMARKS
ALBUQUERQUE    PTCLDY    60  36  40 N3        30.11S
EL PASO        CLEAR     70  19  14 SW8       29.97S
$$


........................KEY........................
SKY/WX - SKY CONDITION/WEATHER
TMP    - TEMPERATURE IN FAHRENHEIT
DP     - DEW POINT IN FAHRENHEIT
RH     - RELATIVE HUMIDITY IN PERCENT
WIND   - DIRECTION AND SPEED IN MILES PER HOUR (MPH)
VRB    - VARIABLE WIND DIRECTION
PRES   - MEAN SEA LEVEL PRESSURE IN INCHES OF MERCURY
         F - FALLING PRESSURE   R - RISING PRESSURE
         S - STEADY PRESSURE
VSB    - VISIBILITY IN MILES
HX     - HEAT INDEX IN FAHRENHEIT
WCI    - WIND CHILL INDEX IN FAHRENHEIT
TC     - TEMPERATURE IN CELSIUS WHICH IS ALSO KNOWN AS
         TEMPERATURE IN CENTIGRADE
AFB    - AIR FORCE BASE
         LUKE AFB IS LUKE AIR FORCE BASE
         DAVIS-MONTHAN IS DAVIS-MONTHAN AIR FORCE BASE
NAS    - NAVAL AIR STATION
         EL CENTRO NAS IS EL CENTRO NAVAL AIR STATION
N/A    - NOT AVAILABLE



USA.gov is the U.S. government's official web portal to all federal, state and local government web resources and services.